Regional Weather Roundup
Issued by NWS Newport/Morehead, NC

Current Version | Previous Version | Graphics & Text | Print | Product List | Glossary Off
Versions: 1 2 3 4 5 6 7 8 9 10 11 12 13 14 15 16 17 18 19 20 21 22 23 24 25 26 27 28 29 30 31 32 33 34 35 36 37 38 39 40 41 42 43 44 45 46 47 48 49 50

000
ASUS42 KMHX 270310
RWRMHX
WEATHER ROUNDUP FOR EASTERN NORTH CAROLINA
NATIONAL WEATHER SERVICE NEWPORT/MOREHEAD CITY NC
1000 PM EST FRI DEC 26 2014

NOTE: "FAIR" INDICATES FEW OR NO CLOUDS BELOW 12,000 FEET
WITH NO SIGNIFICANT WEATHER AND/OR OBSTRUCTIONS TO VISIBILITY

NCZ015>017-031-032-045>047-102-103-270400-
NORTH COAST

CITY           SKY/WX    TMP DP  RH WIND       PRES   REMARKS
EDENTON          N/A     37  35  92 CALM      30.33S
ELIZABETH CITY PTCLDY    41  36  82 CALM      30.32F
KITTY HAWK     CLEAR     46  41  84 CALM      30.31R
MANTEO         CLEAR     37  36  93 CALM      30.33R

$$

NCZ045>047-081-094-103-104-270400-
CENTRAL COAST

CITY           SKY/WX    TMP DP  RH WIND       PRES   REMARKS
FRISCO         CLEAR     39  39 100 N3        30.33R
SWANQUARTER      N/A     41 N/A N/A CALM      30.30S

$$

NCZ095-097-098-100-101-270400-
SOUTHERN COAST

CITY           SKY/WX    TMP DP  RH WIND       PRES   REMARKS
BEAUFORT       CLEAR     39  37  92 CALM      30.34R
CEDAR ISLAND     N/A     41 N/A N/A SE1       30.36S
JACKSONVILLE   CLEAR     38  37  97 CALM      30.33
PINEY ISLAND   CLEAR     47  38  71 CALM      30.34R
WILMINGTON     CLEAR     40  38  93 CALM      30.33S


$$

NCZ011>013-027>030-043-044-078>080-089-090>093-098-270400-
COASTAL PLAIN

CITY           SKY/WX    TMP DP  RH WIND       PRES   REMARKS
AHOSKIE        MOCLDY    37  35  94 CALM      30.32S
CLINTON        CLEAR     38  38 100 CALM      30.34S
ELIZABETHTOWN  CLEAR     39  37  89 CALM      30.33S
GOLDSBORO      CLEAR     39  38  98 CALM      30.32R FOG
GREENVILLE     PTCLDY    37  37 100 CALM      30.34S
HAVELOCK       CLEAR     40  37  89 CALM      30.35R
KENANSVILLE    CLEAR     35  35  99 CALM      30.35R
KINSTON        CLEAR     36  35  96 CALM      30.34R
NEW BERN       CLEAR     39  36  89 CALM      30.34S
RICHLANDS      CLEAR     36  32  87 CALM      30.34S
ROCKY MOUNT    MOCLDY    39  37  92 CALM      30.33R
WASHINGTON     CLEAR     38  36  92 CALM      30.34S
WHITEVILLE     CLEAR     40  37  89 CALM      30.33S

$$

AMZ130-135-150-152-154-156-158-170-250-252-270-ANZ085-086-088-633-658-670-270400-
MARINE OBSERVATIONS

STATION/POSITION TIME  TEMP    WIND        PRES    WAVE   SWELL
                       AIR SEA DIR/SP/G            HT/PER HT/PER
                 (UTC) (F)     (DEG/KT/KT) (MB)    (FT/S) (FT/S)
CHESAPEAKE LIGHT 0200   48     120/  7/  7 1027.3
64 E VA BEACH    0300   50 52   CALM  /  4 1026.6    2/ 9   2/ 9
DUCK             0300   50 51  240/  3/  4 1025.8
2 E DUCK         0300      50                N/A     2/13   2/13
10 NE DUCK       0300      50                N/A     2/13   2/13
OREGON INLET     0300   47 54  130/  5/  5 1026.9
13E OREGON INLT  0300      50                N/A     2/ 8   2/12
HATTERAS CG      0300   50 56   CALM  /  1 1027.4
DIAMOND BUOY     0300   55                 1027.1    3/ 7
17 S OCRACOKE    NOT AVBL
CAPE LOOKOUT     0200   55      20/  3/  3 1026.7
BEAUFORT LAB     0300   47 55   CALM  /  1 1026.2
30 SE NEW RIVER  0300   58 61   10/  4/  6 1027.4    2/ 7   2/ 7
5 SE WRIGHTSVLE  NOT AVBL
225 S CAPE HAT   0224   67 74   70/  8/ 12 1026.2    3/ 8   3/ 8
41 SE CHARLESTON 0300   63 74   10/ 12/ 14 1026.0    3/ 8   2/ 8

$$



USA.gov is the U.S. government's official web portal to all federal, state and local government web resources and services.